Wetterdaten: aktuell Mittwoch, 20.02.2019 09:00
Datum Zeit Temp. I. Temp. A. Boden Garten Temp. Wind Windchill X Feuchte I. Feuchte A. Garten Boden Luftdruck Regen Wind Richtung Richtung Windchill Windben
20.02.2019 09:00 18,3 C 4,0 C 1,4 C 4,9 C 3,7 C 3,2 C 59 % 87 % 30 % 69 % 1022,1 hPa 0,0 l/m 3,9 km/h SW 225 3,2 C 5,0 km/h
20.02.2019 08:40 18,2 C 3,7 C 1,1 C 4,5 C 3,4 C 2,9 C 59 % 87 % 30 % 69 % 1021,9 hPa 0,0 l/m 1,8 km/h W-SW 247 2,9 C 0,0 km/h
20.02.2019 08:20 18,0 C 3,5 C 1,0 C 4,1 C 3,0 C 1,9 C 60 % 86 % 30 % 70 % 1022,1 hPa 0,0 l/m 3,5 km/h S-SO 157 1,9 C 5,1 km/h
20.02.2019 08:00 18,0 C 3,4 C 0,9 C 3,9 C 2,4 C 0,3 C 60 % 86 % 32 % 70 % 1021,8 hPa 0,0 l/m 6,4 km/h S 180 -1,8 C 5,8 km/h
20.02.2019 07:40 18,1 C 3,5 C 1,0 C 4,2 C 2,7 C 1,2 C 60 % 86 % 30 % 69 % 1021,6 hPa 0,0 l/m 4,2 km/h S 180 1,2 C 6,3 km/h
20.02.2019 07:20 18,2 C 3,6 C 1,3 C 4,4 C 3,2 C 2,4 C 60 % 86 % 30 % 69 % 1021,6 hPa 0,0 l/m 1,6 km/h SW 225 2,4 C 1,8 km/h
20.02.2019 07:00 18,2 C 3,9 C 1,3 C 4,4 C 3,0 C 1,1 C 61 % 86 % 30 % 69 % 1021,6 hPa 0,0 l/m 6,1 km/h S 180 -0,8 C 9,2 km/h
20.02.2019 06:40 18,1 C 3,9 C 1,4 C 4,5 C 3,0 C 1,2 C 61 % 86 % 30 % 69 % 1021,6 hPa 0,0 l/m 6,6 km/h SW 225 -0,9 C 7,9 km/h
20.02.2019 06:20 18,1 C 3,9 C 1,4 C 4,5 C 3,3 C 2,1 C 61 % 85 % 30 % 69 % 1021,5 hPa 0,0 l/m 3,9 km/h S 180 2,1 C 8,7 km/h
20.02.2019 06:00 18,3 C 3,9 C 1,5 C 4,5 C 3,0 C 1,1 C 61 % 86 % 30 % 69 % 1021,6 hPa 0,0 l/m 7,2 km/h S 180 -1,2 C 15,0 km/h
20.02.2019 05:40 18,3 C 3,9 C 1,5 C 4,6 C 3,2 C 1,9 C 61 % 85 % 30 % 69 % 1021,3 hPa 0,0 l/m 4,7 km/h S-SO 157 0,7 C 8,0 km/h
20.02.2019 05:20 18,2 C 3,9 C 1,5 C 4,6 C 3,1 C 1,6 C 60 % 85 % 30 % 69 % 1021,3 hPa 0,0 l/m 5,5 km/h S-SO 157 0,0 C 8,5 km/h
20.02.2019 05:00 18,0 C 3,9 C 1,5 C 4,6 C 3,2 C 1,9 C 61 % 85 % 30 % 69 % 1021,6 hPa 0,0 l/m 4,3 km/h W-NW 292 1,9 C 0,0 km/h
20.02.2019 04:40 18,0 C 3,9 C 1,5 C 4,5 C 3,2 C 1,9 C 61 % 85 % 30 % 68 % 1021,1 hPa 0,0 l/m 4,2 km/h S-SO 157 1,9 C 7,7 km/h
20.02.2019 04:20 18,1 C 3,8 C 1,5 C 4,6 C 3,3 C 2,2 C 61 % 85 % 30 % 68 % 1021,2 hPa 0,0 l/m 3,9 km/h S 180 2,2 C 4,8 km/h
20.02.2019 04:00 18,1 C 3,9 C 1,6 C 4,6 C 3,3 C 2,0 C 61 % 85 % 30 % 68 % 1021,4 hPa 0,0 l/m 3,7 km/h S 180 2,0 C 10,9 km/h
20.02.2019 03:40 18,1 C 3,8 C 1,7 C 4,7 C 3,5 C 2,8 C 61 % 85 % 30 % 68 % 1021,6 hPa 0,0 l/m 2,1 km/h W-SW 247 2,8 C 0,0 km/h
20.02.2019 03:20 18,2 C 3,9 C 1,7 C 4,6 C 3,5 C 2,7 C 61 % 84 % 30 % 68 % 1021,6 hPa 0,0 l/m 2,3 km/h SW 225 2,7 C 2,7 km/h
20.02.2019 03:00 18,2 C 4,1 C 1,9 C 4,7 C 3,6 C 2,5 C 62 % 84 % 30 % 68 % 1021,5 hPa 0,0 l/m 3,5 km/h SW 225 2,5 C 3,2 km/h
20.02.2019 02:40 18,0 C 4,0 C 1,9 C 4,8 C 3,7 C 3,1 C 62 % 84 % 30 % 68 % 1021,8 hPa 0,0 l/m 2,4 km/h S-SO 157 3,1 C 3,1 km/h
20.02.2019 02:20 18,0 C 4,0 C 1,9 C 4,6 C 3,6 C 2,8 C 62 % 84 % 30 % 68 % 1021,6 hPa 0,0 l/m 2,7 km/h S 180 2,8 C 4,3 km/h
20.02.2019 02:00 18,1 C 4,2 C 2,0 C 4,6 C 3,4 C 1,7 C 62 % 84 % 29 % 68 % 1021,9 hPa 0,0 l/m 5,5 km/h SW 225 0,1 C 4,2 km/h
20.02.2019 01:40 18,2 C 4,2 C 2,1 C 4,7 C 3,4 C 1,9 C 62 % 83 % 29 % 67 % 1021,6 hPa 0,0 l/m 5,3 km/h S-SW 202 0,4 C 4,3 km/h
20.02.2019 01:20 18,3 C 4,4 C 2,2 C 4,9 C 3,8 C 2,5 C 62 % 83 % 29 % 67 % 1021,4 hPa 0,0 l/m 5,0 km/h S 180 1,2 C 4,5 km/h
20.02.2019 01:00 18,4 C 4,5 C 2,3 C 4,9 C 3,7 C 2,2 C 62 % 83 % 29 % 67 % 1021,4 hPa 0,0 l/m 5,3 km/h SW 225 0,8 C 10,0 km/h
20.02.2019 00:40 18,5 C 4,4 C 2,3 C 5,0 C 3,7 C 2,3 C 61 % 83 % 29 % 66 % 1021,2 hPa 0,0 l/m 5,0 km/h S 180 1,0 C 10,8 km/h
20.02.2019 00:20 18,6 C 4,6 C 2,5 C 5,1 C 3,8 C 2,3 C 61 % 82 % 27 % 65 % 1021,1 hPa 0,0 l/m 5,5 km/h S 180 0,8 C 6,8 km/h
20.02.2019 00:06 18,7 C 4,7 C 2,6 C 5,3 C 3,9 C 2,4 C 61 % 81 % 27 % 65 % 1020,9 hPa 0,0 l/m 5,0 km/h S-SW 202 1,1 C 7,7 km/h
19.02.2019 23:40 18,9 C 5,0 C 3,0 C 5,9 C 4,4 C 3,3 C 61 % 81 % 26 % 65 % 1020,8 hPa 0,0 l/m 5,1 km/h S-SW 202 2,1 C 4,2 km/h
19.02.2019 23:20 19,1 C 5,1 C 3,1 C 6,1 C 4,8 C 4,2 C 60 % 81 % 26 % 63 % 1020,7 hPa 0,0 l/m 3,7 km/h S 180 4,2 C 4,5 km/h
19.02.2019 23:00 19,2 C 5,3 C 3,2 C 6,1 C 4,8 C 3,7 C 60 % 81 % 26 % 63 % 1020,7 hPa 0,0 l/m 5,3 km/h SW 225 2,5 C 5,3 km/h
19.02.2019 22:40 19,6 C 5,3 C 3,2 C 6,3 C 5,0 C 4,3 C 59 % 80 % 24 % 62 % 1020,5 hPa 0,0 l/m 4,0 km/h SW 225 4,3 C 2,6 km/h
19.02.2019 22:20 19,8 C 5,3 C 3,3 C 6,4 C 5,2 C 4,9 C 59 % 80 % 24 % 62 % 1020,5 hPa 0,0 l/m 2,7 km/h SW 225 4,9 C 3,4 km/h
19.02.2019 22:00 20,1 C 5,3 C 3,3 C 6,2 C 5,0 C 4,5 C 58 % 79 % 24 % 62 % 1020,2 hPa 0,0 l/m 1,9 km/h S 180 4,5 C 3,2 km/h
19.02.2019 21:40 20,0 C 5,4 C 3,4 C 6,1 C 4,9 C 3,8 C 56 % 78 % 22 % 61 % 1020,4 hPa 0,0 l/m 4,0 km/h SW 225 3,8 C 4,8 km/h
19.02.2019 21:20 19,8 C 5,6 C 3,6 C 6,3 C 5,2 C 4,3 C 54 % 78 % 22 % 61 % 1020,4 hPa 0,0 l/m 3,7 km/h SW 225 4,3 C 5,3 km/h
19.02.2019 21:00 20,3 C 5,9 C 3,8 C 6,6 C 5,6 C 4,9 C 55 % 77 % 22 % 60 % 1020,2 hPa 0,0 l/m 3,9 km/h S 180 4,9 C 4,8 km/h
19.02.2019 20:40 20,2 C 6,3 C 4,1 C 7,0 C 5,8 C 4,9 C 58 % 77 % 23 % 60 % 1019,9 hPa 0,0 l/m 5,1 km/h S 180 3,9 C 5,5 km/h
19.02.2019 20:20 20,0 C 6,5 C 4,2 C 6,9 C 5,8 C 4,5 C 58 % 76 % 23 % 60 % 1019,9 hPa 0,0 l/m 6,3 km/h S-SW 202 3,0 C 4,8 km/h
19.02.2019 20:00 19,9 C 6,7 C 4,4 C 7,2 C 6,1 C 4,9 C 57 % 75 % 23 % 60 % 1019,7 hPa 0,0 l/m 6,4 km/h S-SW 202 3,5 C 10,8 km/h
19.02.2019 19:40 19,8 C 7,1 C 4,7 C 7,7 C 6,7 C 5,1 C 56 % 75 % 23 % 59 % 1019,8 hPa 0,0 l/m 8,4 km/h S 180 3,1 C 6,8 km/h
19.02.2019 19:20 19,8 C 7,3 C 4,8 C 7,9 C 7,0 C 6,3 C 56 % 74 % 23 % 59 % 1019,4 hPa 0,0 l/m 4,8 km/h S-SW 202 5,6 C 4,2 km/h
19.02.2019 19:00 19,8 C 7,7 C 5,0 C 8,2 C 7,1 C 5,9 C 56 % 73 % 20 % 59 % 1019,2 hPa 0,0 l/m 7,6 km/h N-NW 337 4,3 C 4,2 km/h
19.02.2019 18:40 19,7 C 7,7 C 5,1 C 8,3 C 7,2 C 6,2 C 56 % 73 % 20 % 59 % 1018,9 hPa 0,0 l/m 6,9 km/h W-NW 292 4,8 C 8,2 km/h
19.02.2019 18:20 19,5 C 7,6 C 5,2 C 8,4 C 7,3 C 6,6 C 56 % 73 % 20 % 58 % 1018,9 hPa 0,0 l/m 6,4 km/h W-SW 247 5,4 C 5,1 km/h
19.02.2019 18:00 19,5 C 7,8 C 5,2 C 8,6 C 7,5 C 6,8 C 55 % 73 % 20 % 58 % 1018,8 hPa 0,0 l/m 6,3 km/h W-SW 247 5,7 C 10,3 km/h
19.02.2019 17:40 19,2 C 7,9 C 5,3 C 8,7 C 7,4 C 6,5 C 55 % 72 % 20 % 58 % 1018,6 hPa 0,0 l/m 7,6 km/h W-SW 247 5,0 C 7,7 km/h
19.02.2019 17:20 19,0 C 8,4 C 5,4 C 8,9 C 8,0 C 6,5 C 54 % 72 % 20 % 58 % 1018,9 hPa 0,0 l/m 7,9 km/h W-SW 247 4,9 C 15,8 km/h
19.02.2019 17:00 18,8 C 8,4 C 5,7 C 9,2 C 8,1 C 7,4 C 54 % 72 % 20 % 58 % 1018,8 hPa 0,0 l/m 7,2 km/h W-SW 247 6,1 C 3,7 km/h
19.02.2019 16:40 18,8 C 8,5 C 5,8 C 9,3 C 8,3 C 7,5 C 54 % 72 % 20 % 58 % 1018,6 hPa 0,0 l/m 8,2 km/h W-SW 247 6,0 C 10,0 km/h
19.02.2019 16:20 19,0 C 8,7 C 5,8 C 9,5 C 8,4 C 7,4 C 54 % 71 % 13 % 58 % 1018,8 hPa 0,0 l/m 9,0 km/h S-SW 202 5,7 C 11,9 km/h
19.02.2019 16:04 19,1 C 8,9 C 5,9 C 9,5 C 7,7 C 7,2 C 53 % 70 % 13 % 57 % 1018,5 hPa 0,0 l/m 12,1 km/h S 180 4,9 C 13,2 km/h
19.02.2019 16:00 19,1 C 8,9 C 5,9 C 9,5 C 8,6 C 7,2 C 53 % 70 % 13 % 57 % 1018,5 hPa 0,0 l/m 12,1 km/h S 180 4,9 C 13,2 km/h
19.02.2019 15:40 19,2 C 9,2 C 6,4 C 9,8 C 9,0 C 7,7 C 56 % 70 % 13 % 56 % 1018,4 hPa 0,0 l/m 16,6 km/h NW 315 4,9 C 23,3 km/h
19.02.2019 15:20 19,1 C 9,5 C 6,3 C 10,0 C 9,5 C 8,3 C 59 % 73 % 20 % 58 % 1018,3 hPa 0,0 l/m 12,7 km/h S 180 6,1 C 11,1 km/h
19.02.2019 15:00 18,9 C 9,9 C 6,3 C 10,1 C 10,4 C 9,7 C 56 % 74 % 19 % 58 % 1018,1 hPa 0,0 l/m 13,0 km/h S 180 7,8 C 20,4 km/h
19.02.2019 14:40 18,6 C 8,9 C 6,0 C 9,9 C 9,6 C 10,3 C 55 % 77 % 22 % 59 % 1017,9 hPa 0,0 l/m 8,5 km/h SW 225 10,3 C 11,6 km/h
19.02.2019 14:20 18,4 C 8,2 C 5,7 C 9,6 C 7,9 C 7,3 C 52 % 77 % 20 % 59 % 1018,0 hPa 0,0 l/m 11,6 km/h W-NW 292 5,1 C 11,1 km/h
19.02.2019 14:00 18,1 C 8,3 C 5,7 C 9,5 C 8,2 C 7,3 C 48 % 76 % 20 % 59 % 1017,8 hPa 0,0 l/m 11,4 km/h S 180 5,1 C 7,7 km/h
19.02.2019 13:40 18,4 C 8,2 C 5,7 C 9,5 C 8,6 C 7,8 C 47 % 77 % 22 % 59 % 1018,2 hPa 0,0 l/m 13,2 km/h SW 225 5,5 C 14,2 km/h
19.02.2019 13:20 19,4 C 8,0 C 5,7 C 9,4 C 8,6 C 8,3 C 48 % 78 % 22 % 59 % 1018,1 hPa 0,0 l/m 14,2 km/h W-SW 247 5,9 C 20,0 km/h
19.02.2019 13:00 19,6 C 7,5 C 5,1 C 8,6 C 7,5 C 7,2 C 52 % 79 % 24 % 61 % 1018,1 hPa 0,0 l/m 10,0 km/h SW 225 5,3 C 14,5 km/h
19.02.2019 12:40 19,4 C 7,5 C 5,2 C 8,4 C 8,2 C 6,3 C 52 % 79 % 24 % 61 % 1018,4 hPa 0,0 l/m 12,9 km/h S-SW 202 3,7 C 10,9 km/h
19.02.2019 12:20 19,6 C 7,6 C 5,5 C 8,6 C 10,6 C 9,9 C 51 % 80 % 25 % 61 % 1018,5 hPa 0,0 l/m 13,5 km/h SW 225 8,0 C 21,4 km/h
19.02.2019 12:00 19,6 C 7,5 C 5,2 C 8,5 C 10,0 C 10,4 C 54 % 82 % 27 % 62 % 1018,8 hPa 0,0 l/m 10,8 km/h NW 315 10,4 C 14,2 km/h
19.02.2019 11:40 19,5 C 7,2 C 5,0 C 8,2 C 8,9 C 8,1 C 54 % 83 % 29 % 64 % 1018,2 hPa 0,0 l/m 13,7 km/h W 270 5,8 C 28,3 km/h
19.02.2019 11:20 19,2 C 7,0 C 4,8 C 8,0 C 8,4 C 8,6 C 54 % 85 % 31 % 66 % 1018,2 hPa 0,0 l/m 14,3 km/h S-SO 157 6,3 C 23,5 km/h
19.02.2019 11:00 18,8 C 6,7 C 4,4 C 7,7 C 6,8 C 6,0 C 55 % 85 % 31 % 68 % 1018,5 hPa 0,0 l/m 13,4 km/h W 270 3,2 C 23,2 km/h
19.02.2019 10:40 18,6 C 6,7 C 4,2 C 7,7 C 6,8 C 6,2 C 56 % 86 % 31 % 69 % 1018,6 hPa 0,0 l/m 12,1 km/h S-SW 202 3,7 C 23,0 km/h
19.02.2019 10:20 18,7 C 6,4 C 3,9 C 7,3 C 6,2 C 5,8 C 57 % 86 % 30 % 70 % 1018,8 hPa 0,0 l/m 9,7 km/h SW 225 3,7 C 9,8 km/h
19.02.2019 10:00 18,7 C 6,4 C 3,9 C 7,1 C 5,9 C 4,3 C 57 % 86 % 30 % 70 % 1018,4 hPa 0,0 l/m 10,8 km/h W-SW 247 1,6 C 20,9 km/h
_ Min-Zeit 08:20 08:00 08:00 08:00 08:00 08:00 13:40 16:04 16:20 15:40 14:00 - 07:20 - - 08:00 08:40
Minimum _ 18,0 C 3,4 C 0,9 C 3,9 C 2,4 C 0,3 C 47 % 70 % 13 % 56 % 1017,8 hPa - 1,6 km/h - - -1,8 C 0,0 km/h
_ Max-Zeit 21:00 15:00 15:40 15:00 12:20 12:00 03:00 09:00 08:00 08:20 09:00 09:00 15:40 - - 12:00 11:40
Maximum _ 20,3 C 9,9 C 6,4 C 10,1 C 10,6 C 10,4 C 62 % 87 % 32 % 70 % 1022,1 hPa 0,0 l/m 16,6 km/h
NW
- - 10,4 C 28,3 km/h
W
Durchschnitt _ 18,9 C 6,0 C 3,6 C 6,7 C 5,7 C 4,7 C 57 % 81 % 26 % 64 % 1019,9 hPa #0,0 l/m 7,2 km/h S - 3,4 C 9,9 km/h